Year,Month,Day,Hour,Minute,Value (Times are PST for temperature in C)
2017,09,04,00,00,18.80
2017,09,04,00,01,18.80
2017,09,04,00,02,18.80
2017,09,04,00,03,18.80
2017,09,04,00,04,18.80
2017,09,04,00,05,18.80
2017,09,04,00,06,18.80
2017,09,04,00,07,18.80
2017,09,04,00,08,18.80
2017,09,04,00,09,18.70
2017,09,04,00,10,18.70
2017,09,04,00,11,18.70
2017,09,04,00,12,18.70
2017,09,04,00,13,18.70
2017,09,04,00,14,18.70
2017,09,04,00,15,18.70
2017,09,04,00,16,18.70
2017,09,04,00,17,18.60
2017,09,04,00,18,18.60
2017,09,04,00,19,18.60
2017,09,04,00,20,18.60
2017,09,04,00,21,18.60
2017,09,04,00,22,18.60
2017,09,04,00,23,18.50
2017,09,04,00,24,18.50
2017,09,04,00,25,18.50
2017,09,04,00,26,18.50
2017,09,04,00,27,18.40
2017,09,04,00,28,18.40
2017,09,04,00,29,18.40
2017,09,04,00,30,18.40
2017,09,04,00,31,18.40
2017,09,04,00,32,18.30
2017,09,04,00,33,18.30
2017,09,04,00,34,18.30
2017,09,04,00,35,18.30
2017,09,04,00,36,18.30
2017,09,04,00,37,18.30
2017,09,04,00,38,18.30
2017,09,04,00,39,18.30
2017,09,04,00,40,18.30
2017,09,04,00,41,18.30
2017,09,04,00,42,18.30
2017,09,04,00,43,18.30
2017,09,04,00,44,18.30
2017,09,04,00,45,18.30
2017,09,04,00,46,18.30
2017,09,04,00,47,18.30
2017,09,04,00,48,18.30
2017,09,04,00,49,18.30
2017,09,04,00,50,18.30
2017,09,04,00,51,18.20
2017,09,04,00,52,18.20
2017,09,04,00,53,18.20
2017,09,04,00,54,18.20
2017,09,04,00,55,18.20
2017,09,04,00,56,18.20
2017,09,04,00,57,18.20
2017,09,04,00,58,18.20
2017,09,04,00,59,18.10
2017,09,04,01,00,18.10
2017,09,04,01,01,18.10
2017,09,04,01,02,18.10
2017,09,04,01,03,18.10
2017,09,04,01,04,18.10
2017,09,04,01,05,18.10
2017,09,04,01,06,18.10
2017,09,04,01,07,18.10
2017,09,04,01,08,18.10
2017,09,04,01,09,18.10
2017,09,04,01,10,18.10
2017,09,04,01,11,18.00
2017,09,04,01,12,18.00
2017,09,04,01,13,18.00
2017,09,04,01,14,18.00
2017,09,04,01,15,17.90
2017,09,04,01,16,17.90
2017,09,04,01,17,17.90
2017,09,04,01,18,17.90
2017,09,04,01,19,17.90
2017,09,04,01,20,17.90
2017,09,04,01,21,17.90
2017,09,04,01,22,17.90
2017,09,04,01,23,17.90
2017,09,04,01,24,17.90
2017,09,04,01,25,17.90
2017,09,04,01,26,17.90
2017,09,04,01,27,17.80
2017,09,04,01,28,17.80
2017,09,04,01,29,17.80
2017,09,04,01,30,17.80
2017,09,04,01,31,17.80
2017,09,04,01,32,17.80
2017,09,04,01,33,17.80
2017,09,04,01,34,17.70
2017,09,04,01,35,17.70
2017,09,04,01,36,17.70
2017,09,04,01,37,17.70
2017,09,04,01,38,17.70
2017,09,04,01,39,17.70
2017,09,04,01,40,17.60
2017,09,04,01,41,17.60
2017,09,04,01,42,17.60
2017,09,04,01,43,17.60
2017,09,04,01,44,17.60
2017,09,04,01,45,17.60
2017,09,04,01,46,17.60
2017,09,04,01,47,17.60
2017,09,04,01,48,17.50
2017,09,04,01,49,17.60
2017,09,04,01,50,17.50
2017,09,04,01,51,17.50
2017,09,04,01,52,17.50
2017,09,04,01,53,17.40
2017,09,04,01,54,17.40
2017,09,04,01,55,17.40
2017,09,04,01,56,17.40
2017,09,04,01,57,17.40
2017,09,04,01,58,17.40
2017,09,04,01,59,17.40
2017,09,04,02,00,17.40
2017,09,04,02,01,17.40
2017,09,04,02,02,17.40
2017,09,04,02,03,17.50
2017,09,04,02,04,17.50
2017,09,04,02,05,17.50
2017,09,04,02,06,17.50
2017,09,04,02,07,17.40
2017,09,04,02,08,17.40
2017,09,04,02,09,17.40
2017,09,04,02,10,17.40
2017,09,04,02,11,17.40
2017,09,04,02,12,17.40
2017,09,04,02,13,17.40
2017,09,04,02,14,17.40
2017,09,04,02,15,17.30
2017,09,04,02,16,17.30
2017,09,04,02,17,17.30
2017,09,04,02,18,17.30
2017,09,04,02,19,17.30
2017,09,04,02,20,17.30
2017,09,04,02,21,17.30
2017,09,04,02,22,17.30
2017,09,04,02,23,17.30
2017,09,04,02,24,17.30
2017,09,04,02,25,17.30
2017,09,04,02,26,17.30
2017,09,04,02,27,17.30
2017,09,04,02,28,17.30
2017,09,04,02,29,17.30
2017,09,04,02,30,17.30
2017,09,04,02,31,17.30
2017,09,04,02,32,17.20
2017,09,04,02,33,17.20
2017,09,04,02,34,17.20
2017,09,04,02,35,17.20
2017,09,04,02,36,17.20
2017,09,04,02,37,17.20
2017,09,04,02,38,17.20
2017,09,04,02,39,17.20
2017,09,04,02,40,17.10
2017,09,04,02,41,17.10
2017,09,04,02,42,17.10
2017,09,04,02,43,17.10
2017,09,04,02,44,17.10
2017,09,04,02,45,17.10
2017,09,04,02,46,17.10
2017,09,04,02,47,17.10
2017,09,04,02,48,17.10
2017,09,04,02,49,17.10
2017,09,04,02,50,17.10
2017,09,04,02,51,17.10
2017,09,04,02,52,17.10
2017,09,04,02,53,17.10
2017,09,04,02,54,17.10
2017,09,04,02,55,17.10
2017,09,04,02,56,17.10
2017,09,04,02,57,17.00
2017,09,04,02,58,17.00
2017,09,04,02,59,17.00
2017,09,04,03,00,17.00
2017,09,04,03,01,17.00
2017,09,04,03,02,17.00
2017,09,04,03,03,16.90
2017,09,04,03,04,16.90
2017,09,04,03,05,16.90
2017,09,04,03,06,16.90
2017,09,04,03,07,16.90
2017,09,04,03,08,16.90
2017,09,04,03,09,16.90
2017,09,04,03,10,16.90
2017,09,04,03,11,16.80
2017,09,04,03,12,16.80
2017,09,04,03,13,16.80
2017,09,04,03,14,16.80
2017,09,04,03,15,16.80
2017,09,04,03,16,16.80
2017,09,04,03,17,16.80
2017,09,04,03,18,16.80
2017,09,04,03,19,16.80
2017,09,04,03,20,16.70
2017,09,04,03,21,16.70
2017,09,04,03,22,16.70
2017,09,04,03,23,16.80
2017,09,04,03,24,16.80
2017,09,04,03,25,16.80
2017,09,04,03,26,16.80
2017,09,04,03,27,16.90
2017,09,04,03,28,16.90
2017,09,04,03,29,16.90
2017,09,04,03,30,17.00
2017,09,04,03,31,17.00
2017,09,04,03,32,17.10
2017,09,04,03,33,17.10
2017,09,04,03,34,17.10
2017,09,04,03,35,17.20
2017,09,04,03,36,17.20
2017,09,04,03,37,17.20
2017,09,04,03,38,17.20
2017,09,04,03,39,17.20
2017,09,04,03,40,17.30
2017,09,04,03,41,17.30
2017,09,04,03,42,17.30
2017,09,04,03,43,17.30
2017,09,04,03,44,17.30
2017,09,04,03,45,17.40
2017,09,04,03,46,17.40
2017,09,04,03,47,17.40
2017,09,04,03,48,17.40
2017,09,04,03,49,17.30
2017,09,04,03,50,17.30
2017,09,04,03,51,17.30
2017,09,04,03,52,17.30
2017,09,04,03,53,17.30
2017,09,04,03,54,17.30
2017,09,04,03,55,17.30
2017,09,04,03,56,17.30
2017,09,04,03,57,17.30
2017,09,04,03,58,17.30
2017,09,04,03,59,17.30
2017,09,04,04,00,17.30
2017,09,04,04,01,17.30
2017,09,04,04,02,17.30
2017,09,04,04,03,17.20
2017,09,04,04,04,17.20
2017,09,04,04,05,17.20
2017,09,04,04,06,17.20
2017,09,04,04,07,17.10
2017,09,04,04,08,17.10
2017,09,04,04,09,17.00
2017,09,04,04,10,17.00
2017,09,04,04,11,17.00
2017,09,04,04,12,16.90
2017,09,04,04,13,16.90
2017,09,04,04,14,16.90
2017,09,04,04,15,16.90
2017,09,04,04,16,16.80
2017,09,04,04,17,16.80
2017,09,04,04,18,16.80
2017,09,04,04,19,16.80
2017,09,04,04,20,16.80
2017,09,04,04,21,16.80
2017,09,04,04,22,16.70
2017,09,04,04,23,16.70
2017,09,04,04,24,16.70
2017,09,04,04,25,16.60
2017,09,04,04,26,16.60
2017,09,04,04,27,16.60
2017,09,04,04,28,16.60
2017,09,04,04,29,16.50
2017,09,04,04,30,16.50
2017,09,04,04,31,16.50
2017,09,04,04,32,16.40
2017,09,04,04,33,16.40
2017,09,04,04,34,16.40
2017,09,04,04,35,16.40
2017,09,04,04,36,16.30
2017,09,04,04,37,16.30
2017,09,04,04,38,16.30
2017,09,04,04,39,16.30
2017,09,04,04,40,16.30
2017,09,04,04,41,16.30
2017,09,04,04,42,16.20
2017,09,04,04,43,16.20
2017,09,04,04,44,16.20
2017,09,04,04,45,16.20
2017,09,04,04,46,16.20
2017,09,04,04,47,16.20
2017,09,04,04,48,16.20
2017,09,04,04,49,16.10
2017,09,04,04,50,16.10
2017,09,04,04,51,16.10
2017,09,04,04,52,16.10
2017,09,04,04,53,16.10
2017,09,04,04,54,16.10
2017,09,04,04,55,16.10
2017,09,04,04,56,16.10
2017,09,04,04,57,16.10
2017,09,04,04,58,16.00
2017,09,04,04,59,16.10
2017,09,04,05,00,16.00
2017,09,04,05,01,16.00
2017,09,04,05,02,16.00
2017,09,04,05,03,16.00
2017,09,04,05,04,16.00
2017,09,04,05,05,16.00
2017,09,04,05,06,16.00
2017,09,04,05,07,15.90
2017,09,04,05,08,15.90
2017,09,04,05,09,15.90
2017,09,04,05,10,15.80
2017,09,04,05,11,15.80
2017,09,04,05,12,15.80
2017,09,04,05,13,15.80
2017,09,04,05,14,15.80
2017,09,04,05,15,15.80
2017,09,04,05,16,15.80
2017,09,04,05,17,15.80
2017,09,04,05,18,15.80
2017,09,04,05,19,15.80
2017,09,04,05,20,15.80
2017,09,04,05,21,15.70
2017,09,04,05,22,15.70
2017,09,04,05,23,15.70
2017,09,04,05,24,15.70
2017,09,04,05,25,15.70
2017,09,04,05,26,15.70
2017,09,04,05,27,15.60
2017,09,04,05,28,15.60
2017,09,04,05,29,15.50
2017,09,04,05,30,15.40
2017,09,04,05,31,15.40
2017,09,04,05,32,15.40
2017,09,04,05,33,15.30
2017,09,04,05,34,15.30
2017,09,04,05,35,15.30
2017,09,04,05,36,15.30
2017,09,04,05,37,15.30
2017,09,04,05,38,15.30
2017,09,04,05,39,15.30
2017,09,04,05,40,15.30
2017,09,04,05,41,15.30
2017,09,04,05,42,15.30
2017,09,04,05,43,15.30
2017,09,04,05,44,15.30
2017,09,04,05,45,15.30
2017,09,04,05,46,15.30
2017,09,04,05,47,15.30
2017,09,04,05,48,15.30
2017,09,04,05,49,15.40
2017,09,04,05,50,15.40
2017,09,04,05,51,15.40
2017,09,04,05,52,15.40
2017,09,04,05,53,15.40
2017,09,04,05,54,15.40
2017,09,04,05,55,15.40
2017,09,04,05,56,15.40
2017,09,04,05,57,15.40
2017,09,04,05,58,15.40
2017,09,04,05,59,15.40
2017,09,04,06,00,15.40
2017,09,04,06,01,15.40
2017,09,04,06,02,15.40
2017,09,04,06,03,15.40
2017,09,04,06,04,15.40
2017,09,04,06,05,15.40
2017,09,04,06,06,15.40
2017,09,04,06,07,15.40
2017,09,04,06,08,15.40
2017,09,04,06,09,15.40
2017,09,04,06,10,15.40
2017,09,04,06,11,15.40
2017,09,04,06,12,15.40
2017,09,04,06,13,15.40
2017,09,04,06,14,15.40
2017,09,04,06,15,15.40
2017,09,04,06,16,15.40
2017,09,04,06,17,15.40
2017,09,04,06,18,15.40
2017,09,04,06,19,15.40
2017,09,04,06,20,15.40
2017,09,04,06,21,15.40
2017,09,04,06,22,15.40
2017,09,04,06,23,15.40
2017,09,04,06,24,15.40
2017,09,04,06,25,15.40
2017,09,04,06,26,15.40
2017,09,04,06,27,15.40
2017,09,04,06,28,15.40
2017,09,04,06,29,15.40
2017,09,04,06,30,15.30
2017,09,04,06,31,15.30
2017,09,04,06,32,15.30
2017,09,04,06,33,15.30
2017,09,04,06,34,15.30
2017,09,04,06,35,15.30
2017,09,04,06,36,15.30
2017,09,04,06,37,15.30
2017,09,04,06,38,15.30
2017,09,04,06,39,15.20
2017,09,04,06,40,15.20
2017,09,04,06,41,15.20
2017,09,04,06,42,15.20
2017,09,04,06,43,15.20
2017,09,04,06,44,15.20
2017,09,04,06,45,15.20
2017,09,04,06,46,15.10
2017,09,04,06,47,15.10
2017,09,04,06,48,15.10
2017,09,04,06,49,15.10
2017,09,04,06,50,15.10
2017,09,04,06,51,15.10
2017,09,04,06,52,15.10
2017,09,04,06,53,15.10
2017,09,04,06,54,15.00
2017,09,04,06,55,15.00
2017,09,04,06,56,15.00
2017,09,04,06,57,15.00
2017,09,04,06,58,15.00
2017,09,04,06,59,15.00
2017,09,04,07,00,15.00
2017,09,04,07,01,15.00
2017,09,04,07,02,15.00
2017,09,04,07,03,15.00
2017,09,04,07,04,15.00
2017,09,04,07,05,15.00
2017,09,04,07,06,15.00
2017,09,04,07,07,15.00
2017,09,04,07,08,15.00
2017,09,04,07,09,15.00
2017,09,04,07,10,14.90
2017,09,04,07,11,14.90
2017,09,04,07,12,15.00
2017,09,04,07,13,15.00
2017,09,04,07,14,15.00
2017,09,04,07,15,15.00
2017,09,04,07,16,15.00
2017,09,04,07,17,15.00
2017,09,04,07,18,15.10
2017,09,04,07,19,15.00
2017,09,04,07,20,15.10
2017,09,04,07,21,15.10
2017,09,04,07,22,15.10
2017,09,04,07,23,15.10
2017,09,04,07,24,15.10
2017,09,04,07,25,15.10
2017,09,04,07,26,15.20
2017,09,04,07,27,15.20
2017,09,04,07,28,15.20
2017,09,04,07,29,15.20
2017,09,04,07,30,15.20
2017,09,04,07,31,15.30
2017,09,04,07,32,15.30
2017,09,04,07,33,15.30
2017,09,04,07,34,15.40
2017,09,04,07,35,15.40
2017,09,04,07,36,15.50
2017,09,04,07,37,15.50
2017,09,04,07,38,15.60
2017,09,04,07,39,15.60
2017,09,04,07,40,15.70
2017,09,04,07,41,15.80
2017,09,04,07,42,15.90
2017,09,04,07,43,16.00
2017,09,04,07,44,16.20
2017,09,04,07,45,16.30
2017,09,04,07,46,16.40
2017,09,04,07,47,16.60
2017,09,04,07,48,16.70
2017,09,04,07,49,16.80
2017,09,04,07,50,16.90
2017,09,04,07,51,17.00
2017,09,04,07,52,17.10
2017,09,04,07,53,17.20
2017,09,04,07,54,17.20
2017,09,04,07,55,17.30
2017,09,04,07,56,17.30
2017,09,04,07,57,17.30
2017,09,04,07,58,17.30
2017,09,04,07,59,17.30
2017,09,04,08,00,17.30
2017,09,04,08,01,17.30
2017,09,04,08,02,17.40
2017,09,04,08,03,17.40
2017,09,04,08,04,17.40
2017,09,04,08,05,17.40
2017,09,04,08,06,17.50
2017,09,04,08,07,17.50
2017,09,04,08,08,17.60
2017,09,04,08,09,17.60
2017,09,04,08,10,17.70
2017,09,04,08,11,17.70
2017,09,04,08,12,17.80
2017,09,04,08,13,17.90
2017,09,04,08,14,17.90
2017,09,04,08,15,18.00
2017,09,04,08,16,18.10
2017,09,04,08,17,18.30
2017,09,04,08,18,18.30
2017,09,04,08,19,18.40
2017,09,04,08,20,18.50
2017,09,04,08,21,18.60
2017,09,04,08,22,18.70
2017,09,04,08,23,18.80
2017,09,04,08,24,18.80
2017,09,04,08,25,18.90
2017,09,04,08,26,19.00
2017,09,04,08,27,19.10
2017,09,04,08,28,19.30
2017,09,04,08,29,19.40
2017,09,04,08,30,19.50
2017,09,04,08,31,19.60
2017,09,04,08,32,19.70
2017,09,04,08,33,19.70
2017,09,04,08,34,19.80
2017,09,04,08,35,19.80
2017,09,04,08,36,19.90
2017,09,04,08,37,20.00
2017,09,04,08,38,20.10
2017,09,04,08,39,20.20
2017,09,04,08,40,20.30
2017,09,04,08,41,20.40
2017,09,04,08,42,20.60
2017,09,04,08,43,20.70
2017,09,04,08,44,20.80
2017,09,04,08,45,20.90
2017,09,04,08,46,21.00
2017,09,04,08,47,21.10
2017,09,04,08,48,21.10
2017,09,04,08,49,21.20
2017,09,04,08,50,21.30
2017,09,04,08,51,21.40
2017,09,04,08,52,21.60
2017,09,04,08,53,21.70
2017,09,04,08,54,21.80
2017,09,04,08,55,21.90
2017,09,04,08,56,22.10
2017,09,04,08,57,22.20
2017,09,04,08,58,22.40
2017,09,04,08,59,22.50
2017,09,04,09,00,22.60
2017,09,04,09,01,22.70
2017,09,04,09,02,22.80
2017,09,04,09,03,22.90
2017,09,04,09,04,22.90
2017,09,04,09,05,23.00
2017,09,04,09,06,23.10
2017,09,04,09,07,23.10
2017,09,04,09,08,23.10
2017,09,04,09,09,23.20
2017,09,04,09,10,23.30
2017,09,04,09,11,23.30
2017,09,04,09,12,23.40
2017,09,04,09,13,23.50
2017,09,04,09,14,23.60
2017,09,04,09,15,23.70
2017,09,04,09,16,23.70
2017,09,04,09,17,23.70
2017,09,04,09,18,23.80
2017,09,04,09,19,23.80
2017,09,04,09,20,23.90
2017,09,04,09,21,23.90
2017,09,04,09,22,24.00
2017,09,04,09,23,24.00
2017,09,04,09,24,24.10
2017,09,04,09,25,24.10
2017,09,04,09,26,24.20
2017,09,04,09,27,24.20
2017,09,04,09,28,24.20
2017,09,04,09,29,24.30
2017,09,04,09,30,24.30
2017,09,04,09,31,24.40
2017,09,04,09,32,24.40
2017,09,04,09,33,24.50
2017,09,04,09,34,24.60
2017,09,04,09,35,24.60
2017,09,04,09,36,24.70
2017,09,04,09,37,24.80
2017,09,04,09,38,24.80
2017,09,04,09,39,24.80
2017,09,04,09,40,24.80
2017,09,04,09,41,24.80
2017,09,04,09,42,24.80
2017,09,04,09,43,24.70
2017,09,04,09,44,24.70
2017,09,04,09,45,24.70
2017,09,04,09,46,24.70
2017,09,04,09,47,24.70
2017,09,04,09,48,24.70
2017,09,04,09,49,24.70
2017,09,04,09,50,24.80
2017,09,04,09,51,24.80
2017,09,04,09,52,24.80
2017,09,04,09,53,24.90
2017,09,04,09,54,24.90
2017,09,04,09,55,25.00
2017,09,04,09,56,25.10
2017,09,04,09,57,25.20
2017,09,04,09,58,25.30
2017,09,04,09,59,25.40
2017,09,04,10,00,25.50
2017,09,04,10,01,25.50
2017,09,04,10,02,25.50
2017,09,04,10,03,25.60
2017,09,04,10,04,25.60
2017,09,04,10,05,25.70
2017,09,04,10,06,25.80
2017,09,04,10,07,25.90
2017,09,04,10,08,25.90
2017,09,04,10,09,25.90
2017,09,04,10,10,25.80
2017,09,04,10,11,25.90
2017,09,04,10,12,25.90
2017,09,04,10,13,26.00
2017,09,04,10,14,26.10
2017,09,04,10,15,26.20
2017,09,04,10,16,26.30
2017,09,04,10,17,26.40
2017,09,04,10,18,26.50
2017,09,04,10,19,26.60
2017,09,04,10,20,26.60
2017,09,04,10,21,26.60
2017,09,04,10,22,26.70
2017,09,04,10,23,26.70
2017,09,04,10,24,26.70
2017,09,04,10,25,26.80
2017,09,04,10,26,26.80
2017,09,04,10,27,26.80
2017,09,04,10,28,26.90
2017,09,04,10,29,26.90
2017,09,04,10,30,27.00
2017,09,04,10,31,27.10
2017,09,04,10,32,27.10
2017,09,04,10,33,27.20
2017,09,04,10,34,27.30
2017,09,04,10,35,27.30
2017,09,04,10,36,27.30
2017,09,04,10,37,27.30
2017,09,04,10,38,27.30
2017,09,04,10,39,27.40
2017,09,04,10,40,27.50
2017,09,04,10,41,27.60
2017,09,04,10,42,27.70
2017,09,04,10,43,27.80
2017,09,04,10,44,27.80
2017,09,04,10,45,27.80
2017,09,04,10,46,27.80
2017,09,04,10,47,27.80
2017,09,04,10,48,27.80
2017,09,04,10,49,27.80
2017,09,04,10,50,27.90
2017,09,04,10,51,28.00
2017,09,04,10,52,28.00
2017,09,04,10,53,28.10
2017,09,04,10,54,28.20
2017,09,04,10,55,28.20
2017,09,04,10,56,28.30
2017,09,04,10,57,28.40
2017,09,04,10,58,28.50
2017,09,04,10,59,28.60
2017,09,04,11,00,28.60
2017,09,04,11,01,28.60
2017,09,04,11,02,28.60
2017,09,04,11,03,28.60
2017,09,04,11,04,28.60
2017,09,04,11,05,28.60
2017,09,04,11,06,28.60
2017,09,04,11,07,28.60
2017,09,04,11,08,28.50
2017,09,04,11,09,28.50
2017,09,04,11,10,28.50
2017,09,04,11,11,28.50
2017,09,04,11,12,28.40
2017,09,04,11,13,28.30
2017,09,04,11,14,28.20
2017,09,04,11,15,28.10
2017,09,04,11,16,28.10
2017,09,04,11,17,28.10
2017,09,04,11,18,28.10
2017,09,04,11,19,28.10
2017,09,04,11,20,28.20
2017,09,04,11,21,28.30
2017,09,04,11,22,28.30
2017,09,04,11,23,28.40
2017,09,04,11,24,28.60
2017,09,04,11,25,28.70
2017,09,04,11,26,28.80
2017,09,04,11,27,28.90
2017,09,04,11,28,29.00
2017,09,04,11,29,29.10
2017,09,04,11,30,29.20
2017,09,04,11,31,29.20
2017,09,04,11,32,29.20
2017,09,04,11,33,29.20
2017,09,04,11,34,29.20
2017,09,04,11,35,29.20
2017,09,04,11,36,29.20
2017,09,04,11,37,29.10
2017,09,04,11,38,29.00
2017,09,04,11,39,29.00
2017,09,04,11,40,29.00
2017,09,04,11,41,29.00
2017,09,04,11,42,29.00
2017,09,04,11,43,29.00
2017,09,04,11,44,28.90
2017,09,04,11,45,28.90
2017,09,04,11,46,29.00
2017,09,04,11,47,29.10
2017,09,04,11,48,29.10
2017,09,04,11,49,29.00
2017,09,04,11,50,28.90
2017,09,04,11,51,28.90
2017,09,04,11,52,29.00
2017,09,04,11,53,29.10
2017,09,04,11,54,29.10
2017,09,04,11,55,29.20
2017,09,04,11,56,29.20
2017,09,04,11,57,29.30
2017,09,04,11,58,29.30
2017,09,04,11,59,29.20
2017,09,04,12,00,29.20
2017,09,04,12,01,29.10
2017,09,04,12,02,29.00
2017,09,04,12,03,29.00
2017,09,04,12,04,29.00
2017,09,04,12,05,29.10
2017,09,04,12,06,29.10
2017,09,04,12,07,29.10
2017,09,04,12,08,29.10
2017,09,04,12,09,29.10
2017,09,04,12,10,29.10
2017,09,04,12,11,29.20
2017,09,04,12,12,29.30
2017,09,04,12,13,29.30
2017,09,04,12,14,29.40
2017,09,04,12,15,29.50
2017,09,04,12,16,29.60
2017,09,04,12,17,29.80
2017,09,04,12,18,29.90
2017,09,04,12,19,30.00
2017,09,04,12,20,30.20
2017,09,04,12,21,30.30
2017,09,04,12,22,30.40
2017,09,04,12,23,30.60
2017,09,04,12,24,30.60
2017,09,04,12,25,30.70
2017,09,04,12,26,30.70
2017,09,04,12,27,30.70
2017,09,04,12,28,30.60
2017,09,04,12,29,30.40
2017,09,04,12,30,30.40
2017,09,04,12,31,30.20
2017,09,04,12,32,30.20
2017,09,04,12,33,30.20
2017,09,04,12,34,30.20
2017,09,04,12,35,30.20
2017,09,04,12,36,30.20
2017,09,04,12,37,30.20
2017,09,04,12,38,30.20
2017,09,04,12,39,30.30
2017,09,04,12,40,30.30
2017,09,04,12,41,30.30
2017,09,04,12,42,30.30
2017,09,04,12,43,30.30
2017,09,04,12,44,30.30
2017,09,04,12,45,30.30
2017,09,04,12,46,30.30
2017,09,04,12,47,30.30
2017,09,04,12,48,30.30
2017,09,04,12,49,30.40
2017,09,04,12,50,30.40
2017,09,04,12,51,30.50
2017,09,04,12,52,30.60
2017,09,04,12,53,30.70
2017,09,04,12,54,30.80
2017,09,04,12,55,30.80
2017,09,04,12,56,30.80
2017,09,04,12,57,30.80
2017,09,04,12,58,30.80
2017,09,04,12,59,30.80
2017,09,04,13,00,30.70
2017,09,04,13,01,30.70
2017,09,04,13,02,30.70
2017,09,04,13,03,30.70
2017,09,04,13,04,30.70
2017,09,04,13,05,30.80
2017,09,04,13,06,30.80
2017,09,04,13,07,30.80
2017,09,04,13,08,30.90
2017,09,04,13,09,31.00
2017,09,04,13,10,31.10
2017,09,04,13,11,31.20
2017,09,04,13,12,31.20
2017,09,04,13,13,31.30
2017,09,04,13,14,31.30
2017,09,04,13,15,31.40
2017,09,04,13,16,31.40
2017,09,04,13,17,31.30
2017,09,04,13,18,31.30
2017,09,04,13,19,31.30
2017,09,04,13,20,31.40
2017,09,04,13,21,31.40
2017,09,04,13,22,31.50
2017,09,04,13,23,31.40
2017,09,04,13,24,31.40
2017,09,04,13,25,31.40
2017,09,04,13,26,31.50
2017,09,04,13,27,31.60
2017,09,04,13,28,31.70
2017,09,04,13,29,31.80
2017,09,04,13,30,31.80
2017,09,04,13,31,31.80
2017,09,04,13,32,31.80
2017,09,04,13,33,31.70
2017,09,04,13,34,31.60
2017,09,04,13,35,31.40
2017,09,04,13,36,31.30
2017,09,04,13,37,31.30
2017,09,04,13,38,31.30
2017,09,04,13,39,31.30
2017,09,04,13,40,31.40
2017,09,04,13,41,31.40
2017,09,04,13,42,31.50
2017,09,04,13,43,31.60
2017,09,04,13,44,31.70
2017,09,04,13,45,31.70
2017,09,04,13,46,31.70
2017,09,04,13,47,31.70
2017,09,04,13,48,31.70
2017,09,04,13,49,31.70
2017,09,04,13,50,31.70
2017,09,04,13,51,31.70
2017,09,04,13,52,31.80
2017,09,04,13,53,31.80
2017,09,04,13,54,31.80
2017,09,04,13,55,31.90
2017,09,04,13,56,31.90
2017,09,04,13,57,32.00
2017,09,04,13,58,32.00
2017,09,04,13,59,32.00
2017,09,04,14,00,31.90
2017,09,04,14,01,31.80
2017,09,04,14,02,31.80
2017,09,04,14,03,31.80
2017,09,04,14,04,31.90
2017,09,04,14,05,32.00
2017,09,04,14,06,32.10
2017,09,04,14,07,32.10
2017,09,04,14,08,32.10
2017,09,04,14,09,32.00
2017,09,04,14,10,31.90
2017,09,04,14,11,31.90
2017,09,04,14,12,31.90
2017,09,04,14,13,31.90
2017,09,04,14,14,31.90
2017,09,04,14,15,31.90
2017,09,04,14,16,31.90
2017,09,04,14,17,32.00
2017,09,04,14,18,31.90
2017,09,04,14,19,31.80
2017,09,04,14,20,31.50
2017,09,04,14,21,31.30
2017,09,04,14,22,31.10
2017,09,04,14,23,31.00
2017,09,04,14,24,30.90
2017,09,04,14,25,30.90
2017,09,04,14,26,30.90
2017,09,04,14,27,31.00
2017,09,04,14,28,31.10
2017,09,04,14,29,31.20
2017,09,04,14,30,31.20
2017,09,04,14,31,31.20
2017,09,04,14,32,31.10
2017,09,04,14,33,31.00
2017,09,04,14,34,30.80
2017,09,04,14,35,30.80
2017,09,04,14,36,30.90
2017,09,04,14,37,31.00
2017,09,04,14,38,31.00
2017,09,04,14,39,30.90
2017,09,04,14,40,30.90
2017,09,04,14,41,31.00
2017,09,04,14,42,31.00
2017,09,04,14,43,31.10
2017,09,04,14,44,31.10
2017,09,04,14,45,31.20
2017,09,04,14,46,31.20
2017,09,04,14,47,31.20
2017,09,04,14,48,31.30
2017,09,04,14,49,31.30
2017,09,04,14,50,31.30
2017,09,04,14,51,31.30
2017,09,04,14,52,31.40
2017,09,04,14,53,31.40
2017,09,04,14,54,31.50
2017,09,04,14,55,31.60
2017,09,04,14,56,31.50
2017,09,04,14,57,31.50
2017,09,04,14,58,31.40
2017,09,04,14,59,31.40
2017,09,04,15,00,31.40
2017,09,04,15,01,31.50
2017,09,04,15,02,31.50
2017,09,04,15,03,31.60
2017,09,04,15,04,31.60
2017,09,04,15,05,31.70
2017,09,04,15,06,31.80
2017,09,04,15,07,31.80
2017,09,04,15,08,31.80
2017,09,04,15,09,31.90
2017,09,04,15,10,31.90
2017,09,04,15,11,32.00
2017,09,04,15,12,32.10
2017,09,04,15,13,32.20
2017,09,04,15,14,32.20
2017,09,04,15,15,32.00
2017,09,04,15,16,32.00
2017,09,04,15,17,31.90
2017,09,04,15,18,31.90
2017,09,04,15,19,32.00
2017,09,04,15,20,32.10
2017,09,04,15,21,32.00
2017,09,04,15,22,31.90
2017,09,04,15,23,31.90
2017,09,04,15,24,32.00
2017,09,04,15,25,32.10
2017,09,04,15,26,32.20
2017,09,04,15,27,32.30
2017,09,04,15,28,32.40
2017,09,04,15,29,32.40
2017,09,04,15,30,32.40
2017,09,04,15,31,32.40
2017,09,04,15,32,32.40
2017,09,04,15,33,32.40
2017,09,04,15,34,32.40
2017,09,04,15,35,32.40
2017,09,04,15,36,32.30
2017,09,04,15,37,32.20
2017,09,04,15,38,32.10
2017,09,04,15,39,31.90
2017,09,04,15,40,31.80
2017,09,04,15,41,31.70
2017,09,04,15,42,31.60
2017,09,04,15,43,31.40
2017,09,04,15,44,31.20
2017,09,04,15,45,31.10
2017,09,04,15,46,31.00
2017,09,04,15,47,30.90
2017,09,04,15,48,30.80
2017,09,04,15,49,30.80
2017,09,04,15,50,30.80
2017,09,04,15,51,30.70
2017,09,04,15,52,30.70
2017,09,04,15,53,30.70
2017,09,04,15,54,30.80
2017,09,04,15,55,30.70
2017,09,04,15,56,30.70
2017,09,04,15,57,30.70
2017,09,04,15,58,30.70
2017,09,04,15,59,30.70
2017,09,04,16,00,30.60
2017,09,04,16,01,30.40
2017,09,04,16,02,30.30
2017,09,04,16,03,30.30
2017,09,04,16,04,30.20
2017,09,04,16,05,30.10
2017,09,04,16,06,30.00
2017,09,04,16,07,30.00
2017,09,04,16,08,29.90
2017,09,04,16,09,29.90
2017,09,04,16,10,29.90
2017,09,04,16,11,29.80
2017,09,04,16,12,29.80
2017,09,04,16,13,29.80
2017,09,04,16,14,29.80
2017,09,04,16,15,29.80
2017,09,04,16,16,29.70
2017,09,04,16,17,29.70
2017,09,04,16,18,29.70
2017,09,04,16,19,29.60
2017,09,04,16,20,29.60
2017,09,04,16,21,29.60
2017,09,04,16,22,29.60
2017,09,04,16,23,29.60
2017,09,04,16,24,29.60
2017,09,04,16,25,29.60
2017,09,04,16,26,29.60
2017,09,04,16,27,29.60
2017,09,04,16,28,29.60
2017,09,04,16,29,29.60
2017,09,04,16,30,29.60
2017,09,04,16,31,29.60
2017,09,04,16,32,29.60
2017,09,04,16,33,29.60
2017,09,04,16,34,29.70
2017,09,04,16,35,29.70
2017,09,04,16,36,29.70
2017,09,04,16,37,29.70
2017,09,04,16,38,29.70
2017,09,04,16,39,29.70
2017,09,04,16,40,29.70
2017,09,04,16,41,29.60
2017,09,04,16,42,29.60
2017,09,04,16,43,29.60
2017,09,04,16,44,29.60
2017,09,04,16,45,29.60
2017,09,04,16,46,29.60
2017,09,04,16,47,29.60
2017,09,04,16,48,29.70
2017,09,04,16,49,29.70
2017,09,04,16,50,29.70
2017,09,04,16,51,29.70
2017,09,04,16,52,29.70
2017,09,04,16,53,29.70
2017,09,04,16,54,29.60
2017,09,04,16,55,29.60
2017,09,04,16,56,29.60
2017,09,04,16,57,29.60
2017,09,04,16,58,29.60
2017,09,04,16,59,29.60
2017,09,04,17,00,29.60
2017,09,04,17,01,29.60
2017,09,04,17,02,29.60
2017,09,04,17,03,29.60
2017,09,04,17,04,29.60
2017,09,04,17,05,29.60
2017,09,04,17,06,29.60
2017,09,04,17,07,29.60
2017,09,04,17,08,29.60
2017,09,04,17,09,29.60
2017,09,04,17,10,29.60
2017,09,04,17,11,29.70
2017,09,04,17,12,29.70
2017,09,04,17,13,29.80
2017,09,04,17,14,29.80
2017,09,04,17,15,29.90
2017,09,04,17,16,30.10
2017,09,04,17,17,30.20
2017,09,04,17,18,30.20
2017,09,04,17,19,30.30